When you browse on this site, cookies collect data to enhance your experience and personalize the content and advertising you see.
Visit our Privacy Policy to learn more. By continuing to use the site, you agree to this use of cookies and data.

Hourly Weather Suvodskaya

Today, 12 July, Sunday

Time Temperature Precipitation Wind Pressure Humidity
00:00 +24°C° 0 mm 6 mps 757 mmHg 74%
01:00 +24°C° 0 mm 6 mps 757 mmHg 75%
02:00 +23°C° 0 mm 6 mps 756 mmHg 76%
03:00 +22°C° 0 mm 6 mps 756 mmHg 79%
04:00 +22°C° 0 mm 6 mps 756 mmHg 79%
05:00 +22°C° 0 mm 6 mps 756 mmHg 80%
06:00 +22°C° 0 mm 6 mps 756 mmHg 80%
07:00 +24°C° 0 mm 6 mps 756 mmHg 76%
08:00 +27°C° 0 mm 6 mps 756 mmHg 71%
09:00 +28°C° 0 mm 6 mps 755 mmHg 67%
10:00 +30°C° 0 mm 6 mps 755 mmHg 60%
11:00 +33°C° 0 mm 6 mps 755 mmHg 54%
12:00 +35°C° 0 mm 6 mps 755 mmHg 48%
13:00 +36°C° 0 mm 6 mps 754 mmHg 42%
14:00 +37°C° 0 mm 5 mps 754 mmHg 37%
15:00 +39°C° 0 mm 5 mps 753 mmHg 31%
16:00 +35°C° 0.7 mm 6 mps 753 mmHg 40%
17:00 +32°C° 0.7 mm 6 mps 753 mmHg 50%
18:00 +28°C° 0.7 mm 7 mps 753 mmHg 60%
19:00 +28°C° 0.8 mm 6 mps 753 mmHg 56%
20:00 +27°C° 0.8 mm 5 mps 753 mmHg 53%
21:00 +27°C° 0.8 mm 4 mps 753 mmHg 50%
22:00 +26°C° 0.1 mm 4 mps 753 mmHg 55%
23:00 +25°C° 0.1 mm 4 mps 752 mmHg 60%

Tomorrow, 13 July, Monday

Time Temperature Precipitation Wind Pressure Humidity
00:00 +23°C° 0.1 mm 5 mps 752 mmHg 64%
01:00 +23°C° 0 mm 4 mps 752 mmHg 67%
02:00 +23°C° 0 mm 4 mps 752 mmHg 69%
03:00 +23°C° 0 mm 4 mps 752 mmHg 72%
04:00 +23°C° 0 mm 4 mps 752 mmHg 72%
05:00 +23°C° 0 mm 4 mps 751 mmHg 71%
06:00 +25°C° 0 mm 4 mps 751 mmHg 71%
07:00 +27°C° 0 mm 4 mps 751 mmHg 62%
08:00 +29°C° 0 mm 3 mps 751 mmHg 52%
09:00 +33°C° 0 mm 3 mps 751 mmHg 43%
10:00 +34°C° 0 mm 4 mps 751 mmHg 37%
11:00 +36°C° 0 mm 4 mps 750 mmHg 31%
12:00 +39°C° 0 mm 5 mps 750 mmHg 26%
13:00 +40°C° 0 mm 5 mps 749 mmHg 23%
14:00 +40°C° 0 mm 6 mps 749 mmHg 20%
15:00 +41°C° 0 mm 6 mps 749 mmHg 17%
16:00 +40°C° 0 mm 6 mps 748 mmHg 19%
17:00 +39°C° 0 mm 5 mps 748 mmHg 21%
18:00 +39°C° 0 mm 5 mps 747 mmHg 22%
19:00 +36°C° 0 mm 5 mps 747 mmHg 23%
20:00 +35°C° 0 mm 5 mps 747 mmHg 24%
21:00 +34°C° 0 mm 5 mps 747 mmHg 25%
22:00 +33°C° 0 mm 5 mps 747 mmHg 28%
23:00 +32°C° 0 mm 4 mps 747 mmHg 31%

Day after tomorrow, 14 July, Tuesday

Time Temperature Precipitation Wind Pressure Humidity
00:00 +30°C° 0 mm 4 mps 747 mmHg 34%
01:00 +29°C° 0 mm 3 mps 747 mmHg 36%
02:00 +29°C° 0 mm 3 mps 748 mmHg 38%
03:00 +28°C° 0 mm 3 mps 748 mmHg 39%
04:00 +28°C° 0 mm 3 mps 748 mmHg 41%
05:00 +28°C° 0 mm 2 mps 748 mmHg 43%
06:00 +29°C° 0 mm 2 mps 748 mmHg 45%
07:00 +30°C° 0 mm 2 mps 748 mmHg 44%
08:00 +30°C° 0 mm 1 mps 748 mmHg 42%
09:00 +31°C° 0 mm 1 mps 748 mmHg 40%
10:00 +32°C° 0 mm 2 mps 748 mmHg 39%
11:00 +32°C° 0 mm 2 mps 749 mmHg 39%
12:00 +34°C° 0 mm 3 mps 749 mmHg 39%
13:00 +32°C° 0.1 mm 5 mps 749 mmHg 44%
14:00 +30°C° 0.1 mm 7 mps 749 mmHg 48%
15:00 +29°C° 0.1 mm 8 mps 750 mmHg 53%
16:00 +28°C° 0.5 mm 7 mps 750 mmHg 58%
17:00 +27°C° 0.5 mm 6 mps 750 mmHg 62%
18:00 +26°C° 0.5 mm 6 mps 750 mmHg 67%
19:00 +26°C° 0 mm 5 mps 750 mmHg 69%
20:00 +25°C° 0 mm 4 mps 751 mmHg 70%
21:00 +25°C° 0 mm 3 mps 751 mmHg 72%
22:00 +25°C° 0.1 mm 3 mps 751 mmHg 74%
23:00 +24°C° 0.1 mm 3 mps 751 mmHg 77%

15 July, Wednesday

Time Temperature Precipitation Wind Pressure Humidity
00:00 +24°C° 0.1 mm 3 mps 751 mmHg 79%
01:00 +24°C° 0 mm 3 mps 751 mmHg 80%
02:00 +22°C° 0 mm 3 mps 751 mmHg 81%
03:00 +22°C° 0 mm 3 mps 751 mmHg 82%
04:00 +22°C° 0 mm 3 mps 752 mmHg 78%
05:00 +22°C° 0 mm 4 mps 752 mmHg 75%
06:00 +22°C° 0 mm 5 mps 752 mmHg 72%
07:00 +23°C° 0 mm 5 mps 752 mmHg 66%
08:00 +25°C° 0 mm 5 mps 752 mmHg 61%
09:00 +26°C° 0 mm 6 mps 752 mmHg 56%
10:00 +27°C° 0 mm 6 mps 752 mmHg 52%
11:00 +28°C° 0 mm 7 mps 752 mmHg 48%
12:00 +28°C° 0 mm 7 mps 752 mmHg 44%
13:00 +29°C° 0 mm 7 mps 752 mmHg 43%
14:00 +29°C° 0 mm 7 mps 752 mmHg 43%
15:00 +29°C° 0 mm 7 mps 752 mmHg 42%
16:00 +28°C° 0 mm 7 mps 752 mmHg 45%
17:00 +28°C° 0 mm 7 mps 752 mmHg 47%
18:00 +27°C° 0 mm 6 mps 752 mmHg 49%
19:00 +26°C° 0 mm 6 mps 753 mmHg 53%
20:00 +25°C° 0 mm 5 mps 753 mmHg 57%
21:00 +22°C° 0 mm 5 mps 754 mmHg 61%
22:00 +22°C° 0 mm 5 mps 754 mmHg 65%
23:00 +21°C° 0 mm 5 mps 754 mmHg 68%

16 July, Thursday

Time Temperature Precipitation Wind Pressure Humidity
00:00 +20°C° 0 mm 4 mps 754 mmHg 72%
01:00 +19°C° 0 mm 4 mps 754 mmHg 71%
02:00 +18°C° 0 mm 4 mps 754 mmHg 71%
03:00 +17°C° 0 mm 3 mps 754 mmHg 71%
04:00 +17°C° 0 mm 4 mps 754 mmHg 69%
05:00 +18°C° 0 mm 4 mps 754 mmHg 67%
06:00 +17°C° 0 mm 5 mps 754 mmHg 65%
07:00 +19°C° 0 mm 5 mps 755 mmHg 59%
08:00 +21°C° 0 mm 4 mps 755 mmHg 52%
09:00 +22°C° 0 mm 4 mps 755 mmHg 46%
10:00 +23°C° 0 mm 4 mps 755 mmHg 44%
11:00 +25°C° 0 mm 4 mps 755 mmHg 42%
12:00 +26°C° 0 mm 4 mps 754 mmHg 40%
13:00 +27°C° 0 mm 4 mps 754 mmHg 40%
14:00 +27°C° 0 mm 4 mps 754 mmHg 39%
15:00 +27°C° 0 mm 4 mps 754 mmHg 39%
16:00 +27°C° 0 mm 4 mps 754 mmHg 39%
17:00 +27°C° 0 mm 3 mps 754 mmHg 38%
18:00 +27°C° 0 mm 3 mps 754 mmHg 38%
19:00 +26°C° 0 mm 3 mps 754 mmHg 42%
20:00 +24°C° 0 mm 2 mps 754 mmHg 47%
21:00 +23°C° 0 mm 2 mps 755 mmHg 51%
22:00 +21°C° 0 mm 2 mps 755 mmHg 53%
23:00 +21°C° 0 mm 2 mps 754 mmHg 54%

17 July, Friday

Time Temperature Precipitation Wind Pressure Humidity
00:00 +20°C° 0 mm 3 mps 754 mmHg 56%
01:00 +20°C° 0 mm 2 mps 754 mmHg 57%
02:00 +19°C° 0 mm 2 mps 755 mmHg 58%
03:00 +19°C° 0 mm 2 mps 755 mmHg 58%
04:00 +19°C° 0 mm 2 mps 755 mmHg 58%
05:00 +20°C° 0 mm 2 mps 755 mmHg 57%
06:00 +20°C° 0 mm 2 mps 755 mmHg 57%
07:00 +23°C° 0 mm 2 mps 755 mmHg 52%
08:00 +24°C° 0 mm 2 mps 755 mmHg 48%
09:00 +26°C° 0 mm 1 mps 755 mmHg 44%
10:00 +27°C° 0 mm 1 mps 755 mmHg 40%
11:00 +28°C° 0 mm 1 mps 755 mmHg 37%
12:00 +29°C° 0 mm 1 mps 755 mmHg 34%
13:00 +29°C° 0 mm 1 mps 755 mmHg 33%
14:00 +30°C° 0 mm 1 mps 755 mmHg 32%
15:00 +30°C° 0 mm 2 mps 754 mmHg 31%
16:00 +30°C° 0 mm 2 mps 754 mmHg 31%
17:00 +30°C° 0 mm 1 mps 754 mmHg 32%
18:00 +30°C° 0 mm 1 mps 754 mmHg 32%
19:00 +28°C° 0 mm 1 mps 754 mmHg 35%
20:00 +26°C° 0 mm 2 mps 754 mmHg 37%
21:00 +25°C° 0 mm 2 mps 755 mmHg 40%
22:00 +24°C° 0 mm 2 mps 755 mmHg 42%
23:00 +24°C° 0 mm 3 mps 755 mmHg 43%
Show more